Regional Weather Roundup
Issued by NWS Grand Forks, ND

Home | Current Version | Previous Version | Text Only | Print | Product List | Glossary On
Versions: 1 2 3 4 5 6 7 8 9 10 11 12 13 14 15 16 17 18 19 20 21 22 23 24 25 26 27 28 29 30 31 32 33 34 35 36 37 38 39 40 41 42 43 44 45 46 47 48 49 50
000
ASUS43 KFGF 181310
RWRFGF
PRAIRIE TO PINES  WEATHER ROUNDUP
NATIONAL WEATHER SERVICE EASTERN NORTH DAKOTA/GRAND FORKS ND
700 AM CST SAT NOV 18 2017

 **SATELLITE DATA USED TO AUGMENT SKY COVER AT AUTOMATED STATIONS**
 *****  WEATHER ACROSS EASTERN NORTH DAKOTA  *****

CITY           SKY/WX    TMP DP  RH WIND       PRES   REMARKS
GRAND FORKS    MOCLDY    17  11  77 NW9       29.95R WCI   6
GRAND FRKS AFB FLURRIES  16   9  73 NW10      29.95R WCI   3
GRAND FRKS NWS   N/A     16 N/A N/A NW9         N/A  WCI   4
DEVILS LAKE    MOCLDY    13   9  84 NW21      29.96R WCI  -5
FARGO          CLOUDY    21  15  78 NW14      29.93R WCI   8
WAHPETON ARPT  NOT AVBL
$$

 ***** WEATHER ACROSS CENTRAL AND WESTERN NORTH DAKOTA  *****

CITY           SKY/WX    TMP DP  RH WIND       PRES   REMARKS
BISMARCK       FAIR      20  14  77 NW10      30.05R WCI   9
MINOT          FLURRIES  16  10  77 NW22G28   30.02R WCI  -2
JAMESTOWN      FAIR      18  12  77 NW23      29.96R WCI   0
MINOT AFB      MOCLDY    13   9  82 NW15      30.01R WCI  -3
GARRISON         N/A     14   9  80 NW18      30.02S WCI  -3
WILLISTON      FAIR      12   7  80 W9        30.09R WCI   0
DICKINSON      FAIR      12   8  84 NW13      30.02R WCI  -3
HETTINGER      FAIR      15  12  88 NW8       30.06R WCI   4
$$

 *****  OTHER AIRPORT OBSERVATIONS IN OUR AREA  *****

CITY           SKY/WX    TMP DP  RH WIND       PRES   REMARKS
WALHALLA       FAIR      14  12  92 NW14      29.94R WCI  -1
GRAFTON AIRPOR FAIR      16  10  79 NW15      29.97R WCI   1
VALLEY CITY AR FLURRIES  18  16  93 NW14G21   29.95R WCI   4
CANDO          FAIR      10  10 100 W12       29.98R WCI  -4
CAVALIER APRT  FAIR      14   9  79 NW10      29.94R WCI   1
GWINNER          N/A     21  16  79 NW10      29.94R WCI  10
SHEYENNE NWR     N/A     21  15  78 N8        29.95S WCI  11
ROLLA          PTSUNNY   10   5  79 NW16      29.94R WCI  -7
 ***** THE ABOVE OBSERVATIONS ARE NON NWS ARE NOT QUALITY
       CONTROLLED AND MAY MIS-REPORT RAIN FOR SNOW...
$$

  *****  WEATHER ACROSS NORTHERN MINNESOTA  *****

CITY           SKY/WX    TMP DP  RH WIND       PRES   REMARKS
FLAG ISLAND    LGT SNOW  14  10  85 W6        29.82S WCI   5
WARROAD        CLOUDY    14  10  85 W5        29.85R WCI   6
ROSEAU         CLOUDY    16  10  79 NW7       29.86R WCI   6
HALLOCK        FAIR      16  10  79 NW9       29.92R WCI   4
THF RVR FALLS  MOCLDY    14  10  84 NW12      29.89R WCI   0
BAUDETTE       CLOUDY    15  12  88 W9        29.82R WCI   3
WASKISH        CLOUDY    18  12  79 NW7       29.83S WCI   8
CROOKSTON      MOCLDY    18  12  79 NW15      29.93R WCI   3
STEPHEN NDAWN    N/A     16  10  79 NW10        N/A  WCI   3
GREENBUSH NDAW   N/A     14  10  85 W9          N/A  WCI   2
$$
  *****  WEATHER ACROSS CENTRAL AND WEST MINNESOTA  *****

CITY           SKY/WX    TMP DP  RH WIND       PRES   REMARKS
FOSSTON        FAIR      14  10  85 W7        29.87R WCI   4
BEMIDJI        MOCLDY    16  13  89 NW7       29.83R WCI   6
PARK RAPIDS    MOCLDY    19  14  81 NW10      29.82R WCI   7
ELBOW LAKE     CLOUDY    19  17  91 W12       29.90R WCI   6
WADENA         FAIR      18  16  93 NW8       29.84R WCI   7
DETROIT LAKES  FAIR      19  18  93 NW9       29.88R WCI   9
MOORHEAD       FAIR      18  12  79 CALM      29.93R
FERGUS FALLS   CLOUDY    19  16  86 NW8       29.92R WCI   9
MORRIS MN      FAIR      19  18  93 NW16      29.87R WCI   5
STAPLES        FAIR      18  16  93 NW8       29.84R WCI   7
$$
  *****  WEATHER ELSEWHERE ACROSS MINNESOTA  *****

CITY           SKY/WX    TMP DP  RH WIND       PRES   REMARKS
DULUTH         FAIR      24  22  91 NW7       29.71S WCI  16
INTRNTL FALLS  CLOUDY    15  11  83 W5        29.81R FOG     WCI   8
ELY            MOCLDY    23  21  93 CALM      29.72F
CLOQUET        FAIR      23  19  86 NW7       29.75R WCI  15
WHEATON        FAIR      19  16  86 NW10      29.94R WCI   8
BRAINERD       FAIR      24  18  77 NW9       29.82R WCI  14
HIBBING        FAIR      16  14  92 NW5       29.77R WCI   9
ALEXANDRIA     FAIR      21  17  84 NW9       29.84R WCI  11
SAINT CLOUD    FAIR      27  23  85 NW8       29.79R WCI  19
MINNEAPOLIS    CLOUDY    33  30  88 NW13      29.77R WCI  24
$$

  *****  WEATHER ACROSS SOUTH DAKOTA  *****

CITY           SKY/WX    TMP DP  RH WIND       PRES   REMARKS
SIOUX FALLS    FAIR      29  24  82 NW8       29.87R WCI  21
BROOKINGS      FAIR      24  20  84 N5        29.86R WCI  18
WATERTOWN      FAIR      23  18  81 NW13      29.87R WCI  11
HURON          FAIR      19  16  88 NW7       29.94R WCI  10
SISSETON         N/A     23  18  81 NW14      29.92R WCI  11
ABERDEEN       CLOUDY    21  17  84 N9        29.97R WCI  11
MITCHELL       FAIR      24  20  84 NW9       29.94R WCI  14
PIERRE         FAIR      29  27  92 NW13      29.99R WCI  19
MOBRIDGE       FAIR      24  17  74 NW13      29.99R WCI  12
RAPID CITY     FAIR      34  19  54 NW17      30.07R WCI  23
$$

  *****  SOME WEATHER IN NEARBY STATES *****

CITY           SKY/WX    TMP DP  RH WIND       PRES   REMARKS
GLASGOW MT     FAIR       9   6  88 SW5       30.10R WCI   1
GREAT FALLS MT FAIR      36  18  48 SW26G37   30.07R
CHEYENNE WY    FAIR      22  13  68 NW12G20   30.13R WCI  10
SCOTTSBLUFF NE FAIR      28  20  71 NW9       30.16R WCI  19
OMAHA NE       CLOUDY    38  32  79 N18G26    29.77R
DES MOINES IA  LGT RAIN  39  37  92 N13G26    29.67R
DAVENPORT IA   CLOUDY    40  38  93 N17       29.53S
CHICAGO IL     RAIN      43  39  86 N13       29.46F FOG
EAU CLAIRE WI  CLOUDY    35  32  88 N8        29.71R
LA CROSSE WI   CLOUDY    38  35  89 N12       29.67R
$$

  *****  SOME NATIONAL WEATHER *****

CITY           SKY/WX    TMP DP  RH WIND       PRES   REMARKS
LA GUARDIA NY  PTSUNNY   41  26  55 CALM      29.97F
RALEIGH NC     PTSUNNY   40  37  89 SW6       30.03F
ATLANTA GA     CLOUDY    47  47 100 SE3       30.02S
NEW ORLEANS LA FAIR      67  66  97 S6        29.93R
OKLAHOMA CITY  FAIR      51  38  60 NW30G41   29.77R
ALBUQUERQUE NM FAIR      38  13  35 N16G22    30.26R
SALT LAKE CITY FAIR      31  22  69 SE8       30.43R WCI  23
LOS ANGELES CA FAIR      56  54  93 CALM      30.11S
BOISE ID       FAIR      30  23  75 SE12      30.39R WCI  20
SEATTLE WA     CLOUDY    46  39  76 S8        30.29S
$$

*** WEATHER ACROSS MANITOBA...SASKATCHEWAN AND ONTARIO ***
                ***ONTARIO***

CITY           SKY/WX    TMP DP  RH WIND       PRES   REMARKS
GERALDTON      CLOUDY    25  23  93 NW10G17   29.66S FOG     WCI  15
THUNDER BAY    MOCLDY    28  25  86 N8        29.71S WCI  20
SIOUX LOOKOUT  FLURRIES  16  12  86 NW7       29.75R WCI   6
TORONTO        CLOUDY    41  37  87 SE5       29.55F
BIG TROUT LK   CLOUDY    10   7  85 W9        29.68S WCI  -2
PICKLE LAKE    FLURRIES  14  10  85 W8        29.72R WCI   3
DRYDEN         CLOUDY    10   9  92 W6        29.77R WCI   1
KENORA         LGT SNOW  14  12  92 NW6       29.79S WCI   5
$$
                *** MANITOBA***

CITY           SKY/WX    TMP DP  RH WIND       PRES   REMARKS
BRANDON        CLEAR      5   0  78 W12       29.96R WCI -11
DAUPHIN        CLEAR      7   1  78 W17       29.94S WCI -12
ISLAND LAKE    FLURRIES   9   3  78 W18G25    29.74R WCI -10
PILOT MOUND      N/A     12   7  79 NW12G17     N/A  WCI  -2
THE PAS        FLURRIES  10   3  72 W15       29.86R WCI  -6
THOMPSON       PTCLDY     0  -6  78 W10       29.68S WCI -17
WINNIPEG       FLURRIES  12   9  85 NW12      29.92R WCI  -2
LYNN LAKE      FLURRIES   3   0  85 W13G24    29.65S WCI -14
CHURCHILL      CRYSTALS   0  -4  85 W12G17    29.47R WCI -18
GILLAM         FLURRIES   3  -2  78 W18G26    29.59R WCI -17
$$
                ***SASKATCHEWAN***

CITY           SKY/WX    TMP DP  RH WIND       PRES   REMARKS
ESTEVAN        FLURRIES   7   1  78 W13       30.03S WCI  -9
KINDERSLEY     PTCLDY     0  -4  85 SW10      29.98F WCI -17
LLOYDMINSTER   PTCLDY     3   0  85 S7        29.90F WCI  -9
PRINCE ALBERT  PTCLDY    -2  -6  84 W7        30.01R WCI -16
REGINA         PTCLDY    -2  -6  84 NW5       30.03R WCI -12
YORKTON        CLEAR     -2  -6  84 W9        29.96R WCI -18
N. BATTLEFORD  NOT AVBL
LA RONGE       MOCLDY     3  -2  78 W8G17     29.89S WCI -10
SASKATOON      PTCLDY    -9 -15  77 W9        30.04F WCI -27
SWIFT CURRENT  CLEAR      7   1  78 W10       29.99R WCI  -8
$$
NOTE: THESE ARE AUTOMATED STATIONS WITH LIMITED QUALITY CONTROL
      "FAIR" INDICATES FEW OR NO CLOUDS BELOW 12,000 FEET WITH NO
      SIGNIFICANT WEATHER AND/OR OBSTRUCTIONS TO VISIBILITY.
      SKY/WX - SKY CONDITION AND SIGNIFICANT WEATHER.
      TMP - AIR TEMPERATURE.    DP   - DEWPOINT TEMPERATURE.
      RH  - RELATIVE HUMIDITY.  PRES - PRESSURE.
      HX  - HEAT INDEX.         WCI  - WIND CHILL INDEX.
$



USA.gov is the U.S. government's official web portal to all federal, state and local government web resources and services.